EW4785 Weather Reports


time (UTC)temp
F
wind
direction
speed
knots
gust
knots
rain 1hr
in
rain 24hr
in
rain mn
in
humidity
%
barometer
mb
20260508064540 48 154 0.0 1.7 0.00 0.41 0.00 97 1014.2
20260508063039 48 154 0.0 0.9 0.00 0.41 0.00 97 1014.2
20260508061544 48 154 0.0 0.9 0.00 0.41 0.00 97 1014.4
20260508060035 49 154 0.0 0.0 0.00 0.41 0.00 97 1014.2
20260508054533 49 154 0.0 0.0 0.00 0.42 0.00 97 1014.3
20260508053033 49 154 0.0 0.0 0.00 0.42 0.00 97 1014.3
20260508051531 49 154 0.0 0.0 0.00 0.42 0.00 97 1014.2
20260508050028 49 154 0.0 0.0 0.00 0.42 0.00 97 1014.1
20260508044527 49 154 0.0 0.0 0.00 0.49 0.00 97 1013.9
20260508043047 49 154 0.0 0.0 0.00 0.49 0.00 97 1013.8
20260508041523 49 154 0.0 0.0 0.00 0.49 0.00 97 1013.6
20260508040024 50 154 0.0 0.0 0.00 0.49 0.00 96 1013.6
20260508034519 50 154 0.0 0.0 0.00 0.68 0.49 96 1013.5
20260508033015 50 154 0.0 0.0 0.00 0.68 0.49 96 1013.3
20260508031519 51 154 0.0 0.0 0.00 0.68 0.49 96 1013.3
20260508030012 51 154 0.0 0.0 0.00 0.68 0.49 96 1013.1
20260508024510 52 154 0.0 0.0 0.00 0.70 0.49 96 1013.1
20260508023006 52 154 0.0 0.0 0.00 0.70 0.49 96 1012.8
20260508021505 53 154 0.0 0.0 0.00 0.70 0.49 96 1012.8
20260508020100 53 154 0.0 0.0 0.00 0.70 0.49 96 1012.4
20260508020003 54 154 0.0 0.0 0.00 0.70 0.49 96 1012.4
20260508014600 54 154 0.0 0.0 0.00 0.70 0.49 97 1012.2
20260508013106 54 154 0.0 0.0 0.00 0.70 0.49 97 1012.0
20260508011559 54 154 0.0 0.0 0.00 0.70 0.49 96 1011.6
20260508010056 54 154 0.0 0.0 0.00 0.70 0.49 96 1011.3
20260508004555 55 154 0.0 0.0 0.00 0.70 0.49 96 1011.2
20260508003053 55 154 0.0 0.0 0.00 0.70 0.49 96 1011.3
20260508001553 55 17 0.0 0.9 0.00 0.70 0.49 96 1011.5
20260508000052 55 25 0.0 0.0 0.00 0.70 0.49 96 1011.3
20260507234553 55 25 0.0 0.9 0.00 0.70 0.49 96 1010.7
20260507233053 55 25 0.0 0.0 0.00 0.70 0.49 96 1010.4
20260507231549 55 25 0.0 0.0 0.00 0.70 0.49 96 1010.3
20260507230055 55 25 0.0 0.9 0.00 0.70 0.49 96 1010.0
20260507224548 55 25 0.0 1.7 0.00 0.70 0.49 96 1009.9
20260507223048 56 5 0.0 1.7 0.02 0.70 0.49 96 1009.9
20260507221547 56 12 0.0 4.3 0.02 0.70 0.49 96 1009.9
20260507220046 56 184 0.0 3.5 0.03 0.70 0.49 96 1009.6
20260507214646 56 298 0.0 0.9 0.05 0.70 0.49 96 1009.5
20260507213052 55 346 0.0 2.6 0.04 0.68 0.47 95 1009.7
20260507211544 56 65 0.0 1.7 0.04 0.68 0.47 95 1009.4
20260507210045 56 102 0.0 4.3 0.03 0.67 0.46 95 1009.3
20260507204551 56 47 0.0 2.6 0.00 0.64 0.43 94 1009.6
20260507203042 56 69 0.0 2.6 0.00 0.64 0.43 94 1009.2
20260507201549 56 46 0.9 4.3 0.00 0.64 0.43 93 1009.3
20260507200049 57 150 0.0 2.6 0.00 0.64 0.43 93 1009.2
20260507194546 57 51 0.9 2.6 0.00 0.64 0.43 94 1009.2
20260507193037 57 151 0.9 3.5 0.00 0.64 0.43 95 1008.9
20260507191537 57 76 1.7 4.3 0.00 0.64 0.43 95 1009.1
20260507190038 57 42 0.9 3.5 0.00 0.64 0.43 96 1009.1
20260507184537 57 88 0.9 4.3 0.00 0.65 0.43 96 1009.2
20260507183042 57 52 0.9 3.5 0.00 0.65 0.43 95 1009.3
20260507181531 58 46 0.0 2.6 0.00 0.65 0.43 95 1009.0
20260507180031 59 36 0.9 3.5 0.00 0.65 0.43 94 1009.4
20260507174531 62 360 1.7 5.2 0.00 0.65 0.43 93 1008.8
20260507173022 64 10 0.0 1.7 0.00 0.65 0.43 97 1008.9
20260507171528 64 350 0.0 1.7 0.00 0.65 0.43 96 1008.8
20260507170022 64 59 0.0 3.5 0.00 0.65 0.43 95 1009.3
20260507164521 66 92 0.9 3.5 0.01 0.65 0.43 97 1008.3
20260507163018 66 270 0.0 2.6 0.03 0.65 0.43 98 1008.3
20260507161517 65 286 0.0 1.7 0.07 0.65 0.43 98 1008.6
20260507160028 65 295 0.0 1.7 0.07 0.65 0.43 97 1009.0
20260507154517 65 295 0.0 1.7 0.07 0.64 0.42 97 1009.3
20260507153014 65 288 0.0 2.6 0.05 0.62 0.40 97 1009.9
20260507151514 65 302 0.0 2.6 0.02 0.57 0.36 97 1009.9
20260507150015 65 278 0.0 1.7 0.03 0.57 0.36 98 1009.1
20260507144512 65 267 0.0 1.7 0.04 0.56 0.35 98 1009.2
20260507143026 65 267 0.0 1.7 0.04 0.56 0.35 98 1009.4
20260507141511 65 267 0.0 1.7 0.05 0.56 0.34 98 1009.0
20260507140010 65 267 0.0 0.0 0.10 0.55 0.33 98 1008.5
20260507134509 65 267 0.0 0.9 0.09 0.53 0.31 98 1009.2
20260507133008 65 267 0.0 1.7 0.09 0.53 0.31 98 1009.3
20260507131510 65 259 0.0 2.6 0.08 0.51 0.28 98 1009.6
20260507130019 64 300 0.9 3.5 0.05 0.45 0.23 98 1010.5
20260507124506 64 214 0.0 0.9 0.04 0.44 0.22 98 1010.1
20260507123007 64 213 0.0 1.7 0.05 0.44 0.22 98 1009.7
20260507121506 64 153 0.0 2.6 0.05 0.43 0.21 98 1010.0
20260507120006 64 167 0.0 1.7 0.02 0.40 0.18 97 1010.1
20260507114505 64 175 0.9 1.7 0.02 0.40 0.18 98 1009.3
20260507113104 64 132 0.0 1.7 0.01 0.39 0.17 97 1009.1
20260507111504 64 184 0.0 1.7 0.00 0.38 0.16 98 1009.3
20260507104502 64 170 0.9 1.7 0.04 0.38 0.16 97 1009.8
20260507103101 63 175 0.9 1.7 0.04 0.38 0.16 97 1009.9
20260507101602 63 250 0.0 0.9 0.04 0.38 0.16 97 1009.4
20260507094558 63 179 0.0 3.5 0.01 0.35 0.13 97 1009.5
20260507093057 63 192 1.7 4.3 0.00 0.34 0.12 97 1009.5
20260507091557 63 180 0.9 3.5 0.01 0.34 0.12 97 1009.3
20260507084558 63 190 0.9 2.6 0.02 0.34 0.12 97 1009.4
20260507083058 63 202 0.9 4.3 0.02 0.34 0.12 97 1009.5
20260507081556 64 142 0.0 2.6 0.02 0.33 0.11 97 1009.7
20260507080104 64 182 0.0 2.6 0.01 0.32 0.10 97 1010.3
20260507074556 63 187 0.9 3.5 0.01 0.32 0.10 97 1010.3
20260507073053 63 194 0.9 3.5 0.01 0.32 0.10 97 1009.8
20260507071553 63 163 0.0 3.5 0.00 0.31 0.09 97 1010.0